STARLINK-1882, 46784

Orbit data source: Space-Track

STARLINK-1882, 46784 is a payload satellite owned by SpaceX/Seattle (US) in LEO that was launched on Sat, 24 Oct 2020 UTC via an FALCON 9 launch vehicle from the Air Force Eastern Test Range (AFETR). Payloads include a variety of satellites, spacecraft, and rockets equipped with specific instruments for various scientific and technological missions. These include communications satellites like Starlink; space stations such as the ISS; scientific satellites like the Hubble; Earth observation satellites from companies like Planet Labs, Umbra, and HawkEye 360; GPS; miniature CubeSats for education and research; and military/defense satellites.

Loading next visibility...
STARLINK-1882 details
Identifier
46784, 2020-074AX
Orbit
LEO
Last TLE update13 hours ago
Origin
Flag of USSpaceX/Seattle (US)
ManufacturerSpaceX/Seattle
MissionOperational Commercial Communications
Bus & MotorSTARLINK, Unknown motor
Mass260 kg wet, ~248 kg dry
Launch date (UTC)
2020-10-24 (4 years ago)
Launch vehicle
FALCON 9
Launch site
Air Force Eastern Test Range (AFETR)
Object type
Payload
Rocket body
Debris
Shape & HBRBox + 1 Pan, 8.86 m
Radar Cross Section13.562 m², Large (>1 m²)

Expand to show TLE details & history

TLE from 13 hours ago
0 STARLINK-1882
1 46784U 20074AX  24361.04272792 -.00001538  00000-0 -84432-4 0  9995
2 46784  53.0554 121.0109 0001745  96.7340 263.3848 15.06385894230696
Epoch: 2024-12-26T01:01Z
Definitive object data (Epoch: 2024-12-26T01:01:31.692Z)
Latitude0.00002°
Longitude10.60107°
Altitude548.273 km
Speed7.589 km/s
True Right ascension08h 04m 02s
True Declination0° 00' 00"
Sunlit
Object was in full shadow at TLE epoch
Visualization TLE readout
Latitude23.51568°
Longitude169.10094°
Altitude547.303 km
Speed7.592 km/s
Apparent Right ascension21h 32m 52s
Apparent Declination-11° 03' 55"
Sunlit
Object is in daylight
Visualization observer readout
Local Sidereal Time13:47:29
Azimuth81.449° E
Elevation-27.205°
Doppler factor1
Orbital elements
Apogee altitude548.734 km
Perigee altitude546.317 km
Semi-major axis6,925.662 km
Eccentricity0.0001745
Inclination53.0554°
RAAN121.0109°
Arg. of periapsis96.734°
True anomaly263.36494°
Mean anomaly263.3848°
Eccentric anomaly263.37487°
Mean motion3.76575 °/min
BSTAR-0.000084432
Orbital period95.6 mins
Loading maneuver chart data...

STARLINK-1882 Visibility forecast

Observer location: undefined°, undefined

Span
Click to sort rows by Start time (UTC) header in descending order
Start Az.
Max El. time (UTC)
Max El. Az.
Max El.
End time (UTC)
End Az.
5 mins2024-12-26 15:46:39.418Z335.102° NNW2024-12-26 15:49:39.418Z23.005° NE16.427°2024-12-26 15:51:39.418Z54.524° ENE
6 mins2024-12-26 17:26:39.418Z320.488° NNW2024-12-26 17:29:39.418Z45.078° ENE40.21°2024-12-26 17:32:39.418Z113.075° SE
4 mins2024-12-26 19:07:39.418Z253.109° W2024-12-26 19:08:39.418Z233.669° WSW18.461°2024-12-26 19:11:39.418Z185.862° SSW
7 mins2024-12-27 10:38:39.418Z223.308° SW2024-12-27 10:41:39.418Z151.23° SSE44.407°2024-12-27 10:45:39.418Z52.605° ENE
5 mins2024-12-27 12:19:39.418Z298.484° NW2024-12-27 12:21:39.418Z337.703° N21.082°2024-12-27 12:24:39.418Z27.968° NE
|